Time,TemperatureF,DewpointF,PressureIn,WindDirection,WindDirectionDegrees,WindSpeedMPH,WindSpeedGustMPH,Humidity,HourlyPrecipIn,Conditions,Clouds,dailyrainin,SoftwareType,DateUTC
2013-10-25 00:08:00,57.5,49.0,30.16,SSE,155,0.0,0.0,72,0.00,,,0.00,weatherlink.com 1.10,2013-10-25 05:08:00,
2013-10-25 00:23:00,56.4,48.0,30.16,SSE,155,0.0,1.0,74,0.00,,,0.00,weatherlink.com 1.10,2013-10-25 05:23:00,
2013-10-25 00:38:00,57.2,49.0,30.16,SSE,155,0.0,2.0,74,0.00,,,0.00,weatherlink.com 1.10,2013-10-25 05:38:00,
2013-10-25 00:53:00,58.0,49.0,30.16,SSE,155,0.0,1.0,73,0.00,,,0.00,weatherlink.com 1.10,2013-10-25 05:53:00,
2013-10-25 01:08:00,57.6,49.0,30.16,SSE,155,0.0,0.0,74,0.00,,,0.00,weatherlink.com 1.10,2013-10-25 06:08:00,
2013-10-25 01:23:00,57.1,49.0,30.16,SSE,155,0.0,1.0,75,0.00,,,0.00,weatherlink.com 1.10,2013-10-25 06:23:00,
2013-10-25 01:38:00,56.1,49.0,30.17,SSE,155,0.0,0.0,78,0.00,,,0.00,weatherlink.com 1.10,2013-10-25 06:38:00,
2013-10-25 01:53:00,55.3,49.0,30.17,SSE,155,0.0,0.0,79,0.00,,,0.00,weatherlink.com 1.10,2013-10-25 06:53:00,
2013-10-25 02:08:00,55.1,49.0,30.17,SSE,155,0.0,0.0,79,0.00,,,0.00,weatherlink.com 1.10,2013-10-25 07:08:00,
2013-10-25 02:23:00,54.6,49.0,30.17,SSE,155,0.0,0.0,81,0.00,,,0.00,weatherlink.com 1.10,2013-10-25 07:23:00,
2013-10-25 02:38:00,54.2,49.0,30.17,SSE,155,0.0,0.0,81,0.00,,,0.00,weatherlink.com 1.10,2013-10-25 07:38:00,
2013-10-25 02:53:00,54.0,49.0,30.17,SSE,155,0.0,0.0,82,0.00,,,0.00,weatherlink.com 1.10,2013-10-25 07:53:00,
2013-10-25 03:08:00,53.5,49.0,30.17,SSE,155,0.0,0.0,83,0.00,,,0.00,weatherlink.com 1.10,2013-10-25 08:08:00,
2013-10-25 03:23:00,53.6,49.0,30.17,SSE,155,0.0,0.0,84,0.00,,,0.00,weatherlink.com 1.10,2013-10-25 08:23:00,
2013-10-25 03:38:00,52.9,48.0,30.17,SSE,155,0.0,0.0,84,0.00,,,0.00,weatherlink.com 1.10,2013-10-25 08:38:00,
2013-10-25 03:53:00,52.2,48.0,30.18,SSE,155,0.0,0.0,85,0.00,,,0.00,weatherlink.com 1.10,2013-10-25 08:53:00,
2013-10-25 04:08:00,51.7,48.0,30.17,SSE,155,0.0,0.0,86,0.00,,,0.00,weatherlink.com 1.10,2013-10-25 09:08:00,
2013-10-25 04:23:00,51.3,48.0,30.18,SSE,155,0.0,0.0,87,0.00,,,0.00,weatherlink.com 1.10,2013-10-25 09:23:00,
2013-10-25 04:38:00,50.9,48.0,30.18,SSE,155,0.0,0.0,88,0.00,,,0.00,weatherlink.com 1.10,2013-10-25 09:38:00,
2013-10-25 04:53:00,50.6,47.0,30.18,SSE,155,0.0,0.0,88,0.00,,,0.00,weatherlink.com 1.10,2013-10-25 09:53:00,
2013-10-25 05:08:00,50.3,47.0,30.18,SSE,155,0.0,0.0,89,0.00,,,0.00,weatherlink.com 1.10,2013-10-25 10:08:00,
2013-10-25 05:23:00,50.1,47.0,30.18,SSE,155,0.0,0.0,89,0.00,,,0.00,weatherlink.com 1.10,2013-10-25 10:23:00,
2013-10-25 05:38:00,50.0,47.0,30.19,SSE,155,0.0,0.0,90,0.00,,,0.00,weatherlink.com 1.10,2013-10-25 10:38:00,
2013-10-25 05:53:00,50.0,47.0,30.19,SSE,155,0.0,0.0,89,0.00,,,0.00,weatherlink.com 1.10,2013-10-25 10:53:00,
2013-10-25 06:08:00,49.6,47.0,30.19,SSE,155,0.0,0.0,90,0.00,,,0.00,weatherlink.com 1.10,2013-10-25 11:08:00,
2013-10-25 06:23:00,49.4,47.0,30.20,SSE,155,0.0,0.0,91,0.00,,,0.00,weatherlink.com 1.10,2013-10-25 11:23:00,
2013-10-25 06:38:00,49.4,47.0,30.20,SSE,155,0.0,0.0,91,0.00,,,0.00,weatherlink.com 1.10,2013-10-25 11:38:00,
2013-10-25 06:53:00,49.4,47.0,30.20,SSE,155,0.0,0.0,92,0.00,,,0.00,weatherlink.com 1.10,2013-10-25 11:53:00,
2013-10-25 07:08:00,49.3,47.0,30.20,SSE,155,0.0,0.0,91,0.00,,,0.00,weatherlink.com 1.10,2013-10-25 12:08:00,
2013-10-25 07:23:00,49.3,47.0,30.21,SSE,155,0.0,0.0,91,0.00,,,0.00,weatherlink.com 1.10,2013-10-25 12:23:00,
2013-10-25 07:38:00,48.8,46.0,30.21,SSE,155,0.0,0.0,91,0.00,,,0.00,weatherlink.com 1.10,2013-10-25 12:38:00,
2013-10-25 07:53:00,48.4,46.0,30.22,SSE,155,0.0,0.0,91,0.00,,,0.00,weatherlink.com 1.10,2013-10-25 12:53:00,
2013-10-25 08:08:00,49.0,47.0,30.23,SSE,155,0.0,1.0,93,0.00,,,0.00,weatherlink.com 1.10,2013-10-25 13:08:00,
2013-10-25 08:23:00,50.3,49.0,30.23,SSE,155,0.0,0.0,94,0.00,,,0.00,weatherlink.com 1.10,2013-10-25 13:23:00,
2013-10-25 08:38:00,52.0,50.0,30.23,SSE,155,0.0,0.0,91,0.00,,,0.00,weatherlink.com 1.10,2013-10-25 13:38:00,
2013-10-25 08:53:00,54.5,51.0,30.23,SSE,155,0.0,1.0,87,0.00,,,0.00,weatherlink.com 1.10,2013-10-25 13:53:00,
2013-10-25 09:08:00,56.4,51.0,30.24,SSE,155,0.0,3.0,83,0.00,,,0.00,weatherlink.com 1.10,2013-10-25 14:08:00,
2013-10-25 09:23:00,58.7,53.0,30.25,SE,125,0.0,2.0,80,0.00,,,0.00,weatherlink.com 1.10,2013-10-25 14:23:00,
2013-10-25 09:38:00,60.7,53.0,30.25,SE,128,0.0,2.0,77,0.00,,,0.00,weatherlink.com 1.10,2013-10-25 14:38:00,
2013-10-25 09:53:00,61.1,54.0,30.25,SE,128,1.0,5.0,77,0.00,,,0.00,weatherlink.com 1.10,2013-10-25 14:53:00,
2013-10-25 10:09:00,62.1,54.0,30.25,SE,128,2.0,4.0,76,0.00,,,0.00,weatherlink.com 1.10,2013-10-25 15:09:00,
2013-10-25 10:24:00,63.2,55.0,30.25,ESE,119,2.0,7.0,75,0.00,,,0.00,weatherlink.com 1.10,2013-10-25 15:24:00,
2013-10-25 10:39:00,64.7,56.0,30.25,ESE,107,1.0,8.0,73,0.00,,,0.00,weatherlink.com 1.10,2013-10-25 15:39:00,
2013-10-25 10:54:00,66.1,56.0,30.25,ESE,105,2.0,5.0,71,0.00,,,0.00,weatherlink.com 1.10,2013-10-25 15:54:00,
2013-10-25 11:09:00,66.7,57.0,30.24,ENE,74,1.0,9.0,70,0.00,,,0.00,weatherlink.com 1.10,2013-10-25 16:09:00,
2013-10-25 11:24:00,68.3,57.0,30.24,ENE,78,0.0,5.0,68,0.00,,,0.00,weatherlink.com 1.10,2013-10-25 16:24:00,
2013-10-25 11:39:00,69.6,57.0,30.23,ENE,63,1.0,7.0,65,0.00,,,0.00,weatherlink.com 1.10,2013-10-25 16:39:00,
2013-10-25 11:54:00,71.1,60.0,30.23,ENE,73,1.0,5.0,67,0.00,,,0.00,weatherlink.com 1.10,2013-10-25 16:54:00,
2013-10-25 12:09:00,72.3,57.0,30.23,SSE,158,4.0,10.0,59,0.00,,,0.00,weatherlink.com 1.10,2013-10-25 17:09:00,
2013-10-25 12:24:00,72.7,57.0,30.22,SE,137,4.0,9.0,59,0.00,,,0.00,weatherlink.com 1.10,2013-10-25 17:24:00,
2013-10-25 12:39:00,73.3,57.0,30.22,South,175,4.0,10.0,57,0.00,,,0.00,weatherlink.com 1.10,2013-10-25 17:39:00,
2013-10-25 12:54:00,73.1,58.0,30.21,South,177,4.0,13.0,59,0.00,,,0.00,weatherlink.com 1.10,2013-10-25 17:54:00,
2013-10-25 13:09:00,73.8,57.0,30.20,SSE,164,1.0,12.0,56,0.00,,,0.00,weatherlink.com 1.10,2013-10-25 18:09:00,
2013-10-25 13:24:00,74.0,56.0,30.20,South,172,6.0,14.0,54,0.00,,,0.00,weatherlink.com 1.10,2013-10-25 18:24:00,
2013-10-25 13:39:00,72.9,57.0,30.18,South,186,7.0,8.0,58,0.00,,,0.00,weatherlink.com 1.10,2013-10-25 18:39:00,
2013-10-25 13:54:00,75.1,57.0,30.18,SSW,204,3.0,9.0,54,0.00,,,0.00,weatherlink.com 1.10,2013-10-25 18:54:00,
2013-10-25 14:09:00,74.9,56.0,30.17,South,184,5.0,11.0,53,0.00,,,0.00,weatherlink.com 1.10,2013-10-25 19:09:00,
2013-10-25 14:24:00,74.1,57.0,30.16,SSE,168,3.0,12.0,55,0.00,,,0.00,weatherlink.com 1.10,2013-10-25 19:24:00,
2013-10-25 14:39:00,76.0,58.0,30.16,South,178,5.0,8.0,53,0.00,,,0.00,weatherlink.com 1.10,2013-10-25 19:39:00,
2013-10-25 14:55:00,75.0,58.0,30.15,South,175,2.0,9.0,55,0.00,,,0.00,weatherlink.com 1.10,2013-10-25 19:55:00,
2013-10-25 15:10:00,75.2,56.0,30.15,SSE,164,3.0,8.0,52,0.00,,,0.00,weatherlink.com 1.10,2013-10-25 20:10:00,
2013-10-25 15:25:00,74.7,58.0,30.14,South,169,3.0,9.0,56,0.00,,,0.00,weatherlink.com 1.10,2013-10-25 20:25:00,
2013-10-25 15:40:00,76.3,56.0,30.14,SSW,192,3.0,11.0,50,0.00,,,0.00,weatherlink.com 1.10,2013-10-25 20:40:00,
2013-10-25 15:55:00,76.7,58.0,30.13,South,173,4.0,7.0,52,0.00,,,0.00,weatherlink.com 1.10,2013-10-25 20:55:00,
2013-10-25 16:10:00,75.8,57.0,30.13,SSE,163,4.0,9.0,52,0.00,,,0.00,weatherlink.com 1.10,2013-10-25 21:10:00,
2013-10-25 16:25:00,76.5,56.0,30.12,SSE,162,5.0,10.0,50,0.00,,,0.00,weatherlink.com 1.10,2013-10-25 21:25:00,
2013-10-25 16:40:00,75.3,56.0,30.12,SSE,159,5.0,9.0,52,0.00,,,0.00,weatherlink.com 1.10,2013-10-25 21:40:00,
2013-10-25 16:55:00,75.8,56.0,30.12,South,188,4.0,10.0,50,0.00,,,0.00,weatherlink.com 1.10,2013-10-25 21:55:00,
2013-10-25 17:10:00,76.6,56.0,30.12,SSE,148,5.0,12.0,49,0.00,,,0.00,weatherlink.com 1.10,2013-10-25 22:10:00,
2013-10-25 17:25:00,76.2,56.0,30.12,South,176,5.0,12.0,49,0.00,,,0.00,weatherlink.com 1.10,2013-10-25 22:25:00,
2013-10-25 17:40:00,75.2,55.0,30.12,South,180,4.0,11.0,50,0.00,,,0.00,weatherlink.com 1.10,2013-10-25 22:40:00,
2013-10-25 17:55:00,75.0,56.0,30.12,South,182,4.0,8.0,51,0.00,,,0.00,weatherlink.com 1.10,2013-10-25 22:55:00,
2013-10-25 18:10:00,74.6,56.0,30.12,South,182,3.0,7.0,53,0.00,,,0.00,weatherlink.com 1.10,2013-10-25 23:10:00,
2013-10-25 18:25:00,73.9,56.0,30.12,South,182,0.0,5.0,53,0.00,,,0.00,weatherlink.com 1.10,2013-10-25 23:25:00,
2013-10-25 18:40:00,73.3,56.0,30.12,South,182,0.0,5.0,55,0.00,,,0.00,weatherlink.com 1.10,2013-10-25 23:40:00,
2013-10-25 18:55:00,72.3,57.0,30.12,South,182,0.0,0.0,58,0.00,,,0.00,weatherlink.com 1.10,2013-10-25 23:55:00,
2013-10-25 19:10:00,71.0,56.0,30.13,South,182,0.0,0.0,60,0.00,,,0.00,weatherlink.com 1.10,2013-10-26 00:10:00,
2013-10-25 19:25:00,69.8,57.0,30.13,South,182,0.0,0.0,63,0.00,,,0.00,weatherlink.com 1.10,2013-10-26 00:25:00,
2013-10-25 19:40:00,68.3,57.0,30.13,South,182,0.0,0.0,67,0.00,,,0.00,weatherlink.com 1.10,2013-10-26 00:40:00,
2013-10-25 19:55:00,67.2,57.0,30.13,South,182,0.0,0.0,69,0.00,,,0.00,weatherlink.com 1.10,2013-10-26 00:55:00,
2013-10-25 20:10:00,66.7,57.0,30.13,South,182,0.0,1.0,70,0.00,,,0.00,weatherlink.com 1.10,2013-10-26 01:10:00,
2013-10-25 20:25:00,66.8,57.0,30.13,South,182,0.0,2.0,71,0.00,,,0.00,weatherlink.com 1.10,2013-10-26 01:25:00,
2013-10-25 20:40:00,67.0,57.0,30.14,South,182,2.0,3.0,70,0.00,,,0.00,weatherlink.com 1.10,2013-10-26 01:40:00,
2013-10-25 20:55:00,67.3,57.0,30.14,South,182,0.0,3.0,70,0.00,,,0.00,weatherlink.com 1.10,2013-10-26 01:55:00,
2013-10-25 21:10:00,66.6,57.0,30.14,South,182,0.0,4.0,72,0.00,,,0.00,weatherlink.com 1.10,2013-10-26 02:10:00,
2013-10-25 21:25:00,66.3,58.0,30.14,South,182,0.0,3.0,75,0.00,,,0.00,weatherlink.com 1.10,2013-10-26 02:25:00,
2013-10-25 21:40:00,66.5,59.0,30.14,South,182,0.0,4.0,76,0.00,,,0.00,weatherlink.com 1.10,2013-10-26 02:40:00,
2013-10-25 21:55:00,66.5,59.0,30.14,South,182,0.0,2.0,76,0.00,,,0.00,weatherlink.com 1.10,2013-10-26 02:55:00,
2013-10-25 22:10:00,65.8,58.0,30.14,South,182,0.0,1.0,77,0.00,,,0.00,weatherlink.com 1.10,2013-10-26 03:10:00,
2013-10-25 22:25:00,65.4,59.0,30.13,South,182,1.0,2.0,79,0.00,,,0.00,weatherlink.com 1.10,2013-10-26 03:25:00,
2013-10-25 22:40:00,65.3,59.0,30.13,South,182,1.0,3.0,80,0.00,,,0.00,weatherlink.com 1.10,2013-10-26 03:40:00,
2013-10-25 22:55:00,65.2,59.0,30.14,South,182,1.0,3.0,80,0.00,,,0.00,weatherlink.com 1.10,2013-10-26 03:55:00,
2013-10-25 23:10:00,64.9,59.0,30.14,South,182,0.0,2.0,81,0.00,,,0.00,weatherlink.com 1.10,2013-10-26 04:10:00,
2013-10-25 23:25:00,64.5,59.0,30.14,South,182,0.0,1.0,82,0.00,,,0.00,weatherlink.com 1.10,2013-10-26 04:25:00,
2013-10-25 23:40:00,64.7,59.0,30.13,South,182,0.0,2.0,83,0.00,,,0.00,weatherlink.com 1.10,2013-10-26 04:40:00,
2013-10-25 23:55:00,65.0,59.0,30.13,South,182,0.0,2.0,82,0.00,,,0.00,weatherlink.com 1.10,2013-10-26 04:55:00,